Volver al catálogo

H-2A R/B

ActivoPO
NORAD 43682·ROCKET BODY·🇯🇵 Japan

Lanzado Oct 29, 2018 desde Tanegashima Space Center

Loading…

Próximos Pases (próximas 24 horas)

TLE

ActualizadoSource: Space-Track

Época: Sep 14, 2026, 11:13 UTC

1 43682U 18084L   26257.46755516  .00018179  00000-0  34196-3 0  9997
2 43682  98.8424 156.0468 0022878  85.1072 275.2785 15.48360261434924

Sigue H-2A R/B en tiempo real con AllMySat

Download on the App Store